SITRO-AIS 26

Last updated on Tue Jul 01 2025 00:03:45 GMT+0000 (Coordinated Universal Time)

1 59067U 24039S 25181.51731858 .00003547 00000+0 29992-3 0 9992 2 59067 95.3768 354.2113 0157485 114.2155 247.5618 14.89166082 72305
UTC large
Height (km)
Speed (km/s)
/
Latitude / Longitude
Inclination (degrees)
Orbital Period (minutes)
Azimuth
Elevation
Range (km)
Doppler Factor

Next 0 passes for location: London (51.5072 / 0.1276)

Sorry there are no passes over London.